GSAT0102 (GALILEO-FM2) (37847 NORAD) Tracking and Keplerian Element Data

This shows tracking and keplerian element data for the satellite.

Feedback or suggestion? Click here.




ElementValue
Catalog37847
NameGSAT0102 (GALILEO-FM2)
Epoch Orbit8274
Epoch Day34.53113108
Epoch Year2025
RAAN355.2749
Inclination57.1163
Eccentricity0.0005185
Argument of Perigee322.4746
Mean Anonmoly254.6883
Mean Motion1.70475587
Decay Rate-8.3E-07
L11 37847U 11060B 25034.53113108 -.00000083 00000+0 00000+0 0 9993
L22 37847 57.1163 355.2749 0005185 322.4746 254.6883 1.70475587 82747



Live tracking and technical data element details for GSAT0102 (GALILEO-FM2) (NORAD 37847). GSAT0102 (GALILEO-FM2) can be tracked NOW for your location showing map with azimuth and elevation plus other details from your city location.







IsCatalogInMostPopularTable: catalog: 37847, numindb: 369
Update: records affected: 1



GetName: 37847 GSAT0102 (GALILEO-FM2)

Hit Count: updated at: Thu, 15 May 2025 19:59:59 GMT